Find Starlink 38192

NORAD ID: 100158 Int'l Des: 2026-171 Owner: SPXS Country: US Constellation: starlink operational

Current View

Loading 3D Globe...

About Starlink 38192

Starlink 38192 (NORAD 100158) is a starlink constellation satellite (v2 mini) launched Jul 24, 2026 by SPXS of US. with a mass of 575.00 kg.

Upcoming Passes

Passes for default location (London). Set your location on the main map for personalized predictions.

Altitude History

Loading altitude history...

Two-Line Element Set

1 A0158U 26171L 26223.91411792 .00110734 00000-0 73243-3 0 9998
2 A0158 97.2838 255.6163 0000913 120.5571 239.5784 15.75230098 2746
Epoch: Aug 11, 2026 • Age: 11 hours

Current Status

Altitude 355.9 km
Apogee / Perigee N/A
Velocity 7.70 km/s
Sub-Earth Point 74.72°N, 7.27°E
Launch Date Jul 24, 2026
Age 18 days
Type internet

Technical Details

Classification Payload
Mass 575.00 kg
Dry Mass 530.00 kg
Total Mass 575.00 kg
Length 0.30 m
Diameter 4.10 m
Span 29.00 m
Shape Box + pan
Manufacturer SPXS
Bus Type Starlink V2MO
Phase Status In Orbit
Owner/State SPXS/US

Most Searched